Weather in Krutovo

Russia / Vladimir Oblast     55°53′37″N   39°25′33″E
temp.,
°C
wind,
m/s
gust,
m/s
humid.,
%
clouds,
%
prec.,
mm/h
press.,
hPa
HPBL,
m
2 march, tue
tue200:00+1w51392100 0.0 1011672
03:00+1w51193100 0.0 1010769
06:00+1w51297100 0.1 1007731
09:00+1wnw51192100 0.2 1007998
12:00+1wnw598793 0.3 10061104
15:00+1wnw5108597 0.4 10061232
18:00−1nw4109391 0.1 1007798
21:00−3nw3129395 0.3 1009638
3 march, wed
wed300:00−3nw4119198 0.1 1009774
03:00−6nw5138866 0.1 1011692
06:00−7nw5128994 0.0 1012639
09:00−6nw5128382 0.0 1014831
12:00−2wnw597943 0.0 1013965
15:00−1wnw598572 0.1 10131014
18:00−2wnw41092100 0.1 1012807
21:00−2w41190100 0.2 1012737
4 march, thu
thu400:00−2w4109491 0.1 1010632
03:00−2wsw5119095 0.2 1007708
06:00−1wsw61594100 0.6 1003952
09:000wsw61386100 0.9 1001941
12:000wsw61287100 0.1 9981124
15:00+1wsw61288100 0.1 9971048
18:000w61293100 0.1 996921
21:00−4wnw31086100 0.8 999369
5 march, fri
fri500:00−7wnw399237 0.0 1001266
03:00−9nw269519 0.0 1003149
06:00−10nw22960 0.0 100531
09:00−8nw13920 0.0 1007154
12:00−4nnw117943 0.0 1007573
15:00−3wsw127571 0.0 1008775
18:00−6w0092100 0.1 100824
21:00−8ene119699 0.2 100921
6 march, sat
sat600:00−9nne129797 0.2 100923
03:00−11nnw229676 0.2 100925
06:00−12nnw22949 0.0 100927
09:00−10nw369215 0.0 1009269
12:00−6nw468382 0.0 1010782
15:00−6nw367591 0.2 10101096
18:00−8wnw2389100 0.3 1010106
21:00−12nw129589 0.3 101121